Powrót do katalogu

SOICAL

CONE

AktywnyNaukaLEO
NORAD 4132·PAYLOAD·🇺🇸 United States

Wystrzelony Sep 30, 1969 z Vandenberg Space Force Base

Loading…

Następne Przeloty (najbliższe 24 godziny)

TLE

ŚwieżeSource: Space-Track

Epoka: Sep 14, 2026, 11:35 UTC

1 04132U 69082K   26257.48313197  .00000799  00000-0  31820-3 0  9995
2 04132  69.9914  68.6628 0009151 353.6550   6.4457 14.32144377933691

Śledź SOICAL w czasie rzeczywistym z AllMySat

Download on the App Store